{"data":{"norad_id":60086,"intl_designator":"2024-115A","name":"ASTRA 1P (SES-24)","alt_names":[],"object_type":"PAYLOAD","status":"ACTIVE","operator":null,"country":"SES","launch_date":"2024-06-20","launch_site_code":"AFETR","launch_vehicle":null,"mission":null,"orbit_class":"UNKNOWN","rcs_meters":null,"size_class":null,"mass_kg":null,"dimensions":null,"purposes":["comms"],"wikipedia_slug":null,"has_3d_model":false,"image_url":null,"decayed_at":null,"tle_current":{"epoch":"2026-05-25T03:50:01.744224Z","epoch_age_seconds":57256,"freshness":"FRESH","line1":"1 60086U 24115A   26145.15974241  .00000116  00000+0  00000+0 0  9990","line2":"2 60086   0.0716  33.0170 0001535 269.6635  16.7688  1.00258065  6965","mean_motion":1.00258065,"eccentricity":0.0001535,"inclination_deg":0.0716,"raan_deg":33.017,"arg_perigee_deg":269.6635,"mean_anomaly_deg":16.7688,"bstar":0,"rev_number":696,"period_min":1436.2934293615,"perigee_km":35783.968737036,"apogee_km":35796.91449067,"semimajor_km":42168.578613853,"source":"CELESTRAK","updated_at":"2026-05-25T13:38:14.520475Z"}}}